Flag for U.S.A. Weather past 2 weeks in Lawrence, Kansas, U.S.A.

Now
39 °F

Sunny.


Feels Like: 31 °F
Forecast: 29 / 60 °F
Wind: 13 mph from West

Location: Lawrence Municipal Airport

Current Time: Jan 26, 2015 at 10:41:02 AM

Latest Report: Jan 26, 2015 at 9:52 AM


Visibility: 10 mi

Pressure: 29.99 "Hg

Humidity: 73%

Dew point: 31 °F

Location of LawrenceLocation

Historic Weather in Lawrence — Graph

°F

Lawrence temperature yesterday

Maximum temperature yesterday: 46 °F (at 12:52 AM)
Minimum temperature yesterday: 23 °F (at 11:52 PM)
Average temperature yesterday: 38 °F

Past Weeks' High & Low Weather Summary

 TemperatureHumidityPressure
High67 °F (Jan 19, 2:52 PM)100% (Jan 25, 11:52 PM)30.74 "Hg (Jan 25, 11:52 PM)
Low4 °F (Jan 13, 5:52 AM)21% (Jan 16, 3:52 PM)29.67 "Hg (Jan 25, 1:52 AM)
Average32 °F65%30.17 "Hg
* Reported Jan 11 8:52 AM — Jan 26 8:52 AM, Lawrence, Weather by CustomWeather, © 2014

Note: Actual official high and low records may vary slightly from our data, if they occured in-between our weather recording intervals... More about our weather records

Advertising

Lawrence weather history for previous 24 hours

 ConditionsComfort  
Time TempWeatherWind HumidityBarometerVisibility
8:52 AM
Jan 26
34 °FSunny.7 mph82%30.01 "Hg9 mi
7:52 AM25 °FSunny.3 mph92%30.04 "Hg8 mi
6:52 AM21 °FClear.No wind92%30.05 "Hg8 mi
5:52 AM21 °FIce fog.3 mph92%30.06 "Hg6 mi
4:52 AM19 °FPassing clouds.3 mph92%30.08 "Hg7 mi
3:52 AM21 °FPassing clouds.No wind92%30.11 "Hg8 mi
2:52 AM19 °FClear.3 mph92%30.14 "Hg9 mi
1:59 AM20 °FIce fog.3 mph89%30.10 "Hg4 mi
1:04 AM21 °FIce fog.3 mph92%30.11 "Hg3 mi
12:55 AM22 °FIce fog.No wind92%30.11 "Hg1 mi
11:52 PM
Jan 25
23 °FIce fog.No wind100%30.14 "Hg6 mi
10:52 PM28 °FClear.No wind93%30.14 "Hg10 mi
9:52 PM29 °FOvercast.3 mph89%30.14 "Hg10 mi
8:52 PM30 °FPassing clouds.3 mph89%30.13 "Hg10 mi
7:52 PM31 °FClear.6 mph85%30.12 "Hg10 mi
7:00 PM38 °FMostly cloudy.12 mph73%30.11 "Hg10 mi
6:52 PM38 °FMostly cloudy.10 mph73%30.12 "Hg10 mi
5:52 PM39 °FOvercast.18 mph76%30.09 "Hg10 mi
4:52 PM39 °FOvercast.21 mph76%30.06 "Hg10 mi
3:52 PM38 °FOvercast.18 mph79%30.01 "Hg10 mi
2:52 PM38 °FOvercast.22 mph83%29.97 "Hg9 mi
1:52 PM39 °FOvercast.24 mph79%29.93 "Hg9 mi
12:52 PM39 °FOvercast.18 mph79%29.90 "Hg7 mi
11:52 AM38 °FOvercast.23 mph83%29.88 "Hg9 mi
10:52 AM38 °FLight rain. Overcast.24 mph83%29.85 "Hg8 mi
Weather by CustomWeather, © 2014

See weather overviewHow to use our weather pages